Regional Weather Roundup
Issued by NWS

Home | Current Version | Previous Version | Graphics & Text | Print | Product List | Glossary Off
Versions: 1 2 3 4 5 6 7 8 9 10 11 12 13 14 15 16 17 18 19 20 21 22 23 24 25 26 27 28 29 30 31 32 33 34 35 36 37 38 39 40 41 42 43 44 45 46 47 48 49 50

000
ASUS43 KFSD 280310
RWRSD

WEATHER ROUNDUP FOR SOUTH DAKOTA
NATIONAL WEATHER SERVICE SIOUX FALLS SD
1000 PM CDT WED MAY 27 2015

NOTE: "FAIR" INDICATES FEW OR NO CLOUDS BELOW 12,000 FEET WITH NO
SIGNIFICANT WEATHER AND/OR OBSTRUCTIONS TO VISIBILITY.


SDZ001>005-009-010-012>017-280400-
NORTHWEST AND NORTH CENTRAL SOUTH DAKOTA

CITY           SKY/WX    TMP DP  RH WIND       PRES   REMARKS
BUFFALO          N/A     57  55  93 E7        29.89R
FAITH            N/A     59  55  87 SE12      29.92R
MOBRIDGE       LGT RAIN  65  59  81 SE10      29.93R
$$

SDZ012>016-024>037-041>051-057-063-072>074-280400-
SOUTHWEST AND SOUTH CENTRAL SOUTH DAKOTA

CITY           SKY/WX    TMP DP  RH WIND       PRES   REMARKS
RAPID CTY ARPT CLEAR     62  53  72 S8        29.91R
PIERRE         LGT RAIN  62  58  86 W14       29.95R
CUSTER         CLEAR     57  47  69 SW3       30.03R
ELLSWORTH AFB  CLEAR     61  58  92 SE9       29.91R
PHILIP         MOCLDY    59  57  93 E8        29.91R
PINE RIDGE     PTCLDY    64  52  64 S14       29.96R
SPEARFISH      MOCLDY    55  54  94 SW7       29.98R
WINNER         FAIR      71  51  49 S14       29.95S
$$

SDZ004>011-016>023-039-040-280400-
NORTHEAST SOUTH DAKOTA

CITY           SKY/WX    TMP DP  RH WIND       PRES   REMARKS
ABERDEEN       CLOUDY    68  56  65 S5        29.96R
WATERTOWN      CLOUDY    74  48  39 CALM      30.01R
BROOKINGS      MOCLDY    73  50  43 S6        30.02R
SISSETON         N/A     69  55  60 CALM      29.97R
$$

SDZ017-020-022-023-036>040-048>070-280400-
SOUTHEAST SOUTH DAKOTA

CITY           SKY/WX    TMP DP  RH WIND       PRES   REMARKS
SIOUX FALLS    PTCLDY    67  52  58 S8        30.01R
HURON            N/A    N/A N/A N/A MISG      29.96S
CHAMBERLAIN    CLOUDY    65  53  64 SE9       29.96R
MITCHELL       CLOUDY    70  55  59 SE8       29.97S
YANKTON        PTCLDY    72  48  43 S8        29.99R
$$

ABBREVIATIONS USED IN REMARKS
   TC - TEMPERATURE IN CELSIUS
  WCI - WIND CHILL INDEX
   HX - HEAT INDEX
  VSB - VISIBILITY




USA.gov is the U.S. government's official web portal to all federal, state and local government web resources and services.